Regional Weather Roundup
Issued by NWS

Home | Current Version | Previous Version | Text Only | Print | Product List | Glossary On
Versions: 1 2 3 4 5 6 7 8 9 10 11 12 13 14 15 16 17 18 19 20 21 22 23 24 25 26 27 28 29 30 31 32 33 34 35 36 37 38 39 40 41 42 43 44 45 46 47 48 49 50
000
ASUS42 KFFC 291210
RWRGA
WEATHER ROUNDUP FOR GEORGIA
NATIONAL WEATHER SERVICE PEACHTREE CITY GA
800 AM EDT WED JUL 29 2015

NOTE: "FAIR" INDICATES FEW OR NO CLOUDS BELOW 12,000 FEET WITH NO
SIGNIFICANT WEATHER AND/OR OBSTRUCTIONS TO VISIBILITY.

* = USE WITH CAUTION. THE STATIONS MARKED WITH AN ASTERISK MAY NOT
REPORT WEATHER SUCH AS PRECIPITATION, FOG, OR THUNDER AND ARE NOT
QUALITY CONTROLLED BY NWS.

THE REMARK "TC" DENOTES TEMPERATURE READING IN DEGREES CELSIUS.

GAZ001>058-291300-
NORTH GEORGIA

CITY           SKY/WX    TMP DP  RH WIND       PRES   REMARKS
ATLANTA        PTSUNNY   77  70  79 NW9       30.01R
6HR MIN TEMP:  75; 6HR MAX TEMP:  79;

ATHENS         SUNNY     77  73  87 NE6       30.01R
6HR MIN TEMP:  75; 6HR MAX TEMP:  78;

CHAMBLEE       MOSUNNY   79  73  82 NW6       30.01R
6HR MIN TEMP:  76; 6HR MAX TEMP:  79;

PEACHTREE CITY SUNNY     77  72  84 VRB3      30.02R
6HR MIN TEMP:  73; 6HR MAX TEMP:  77;

ROME           PTSUNNY   74  73  97 CALM      30.01R
6HR MIN TEMP:  73; 6HR MAX TEMP:  75;

WEST ATLANTA   SUNNY     77  71  82 CALM      30.01R
6HR MIN TEMP:  75; 6HR MAX TEMP:  79;

GAINESVILLE    SUNNY     77  72  84 E6        30.05R
6HR MIN TEMP:  76; 6HR MAX TEMP:  79;

CARTERSVILLE   SUNNY     74  71  91 CALM      30.02R
6HR MIN TEMP:  71; 6HR MAX TEMP:  74;



CITY           SKY/WX    TMP DP  RH WIND       PRES   REMARKS
DALTON*        SUNNY     73  73 100 CALM      30.02R
LAWRENCEVILLE* SUNNY     75  68  78 CALM      30.01R
MARIETTA       PTSUNNY   78  72  82 NW5       30.02R
KENNESAW*      MOSUNNY   75  72  88 CALM      30.04R
BLAIRSVILLE*     N/A     71  64  76 CALM      30.08S HAZE
$$

GAZ059>098-102>109-291300-
CENTRAL GEORGIA

CITY           SKY/WX    TMP DP  RH WIND       PRES   REMARKS
AUGUSTA-BUSH   MOSUNNY   78  74  87 SE3       29.98R
6HR MIN TEMP:  73; 6HR MAX TEMP:  79;

AUGUSTA-DANIEL MOSUNNY   78  73  84 SE6       30.00R
6HR MIN TEMP:  76; 6HR MAX TEMP:  82;

COLUMBUS       MOSUNNY   78  72  81 N5        29.99R
6HR MIN TEMP:  76; 6HR MAX TEMP:  79;

MACON          SUNNY     76  73  91 CALM      29.98R
6HR MIN TEMP:  73; 6HR MAX TEMP:  76;

ROBINS AFB     MOSUNNY   76  74  92 N2        29.97R


CITY           SKY/WX    TMP DP  RH WIND       PRES   REMARKS
LAGRANGE*      MOSUNNY   78  78 100 CALM      30.01R
SYLVANIA*      MOSUNNY   78  77  97 CALM      29.99R
MILLEDGEVILLE* SUNNY     79  73  83 CALM      29.98R
$$

GAZ099>101-110>166-291300-
SOUTH GEORGIA

CITY           SKY/WX    TMP DP  RH WIND       PRES   REMARKS
SAVANNAH       PTSUNNY   79  75  87 NE7       29.98R
6HR MIN TEMP:  76; 6HR MAX TEMP:  79;

VALDOSTA       MOSUNNY   79  78  97 CALM      29.96R
6HR MIN TEMP:  76; 6HR MAX TEMP:  79;

ALMA           MOSUNNY   77  75  93 SE3       29.97R
6HR MIN TEMP:  73; 6HR MAX TEMP:  77;

ST SIMONS      MOSUNNY   79  76  90 N5        29.96R
6HR MIN TEMP:  76; 6HR MAX TEMP:  79;

FT STEWART     MOSUNNY   77  75  93 CALM      29.96R
ALBANY         SUNNY     79  74  84 CALM      29.98R
HUNTER AFB     SUNNY     80  79  99 E5        29.95R
MOODY AFB      SUNNY     77  75  93 E3        29.95R
BRUNSWICK      MOSUNNY   73  73 100 NW3       29.97S


CITY           SKY/WX    TMP DP  RH WIND       PRES   REMARKS
BAINBRIDGE*    SUNNY     81  79  94 NW3       29.97R FOG
MOULTRIE*      SUNNY     79  77  94 CALM      29.97R
VIDALIA*       SUNNY     77  73  88 CALM      29.98R
WAYCROSS*      MOSUNNY   79  78  99 CALM      29.97R
DOUGLAS*       SUNNY     79  73  83 SE3       29.99R
$$



USA.gov is the U.S. government's official web portal to all federal, state and local government web resources and services.